[TLELIST] Archives

 

[list_settings.list_name] Current TLEs

February 14th 2012 PST

HST 1 20580U 90037B 12044.89904863 .00001055 00000-0 65693-4 0 9435 2 20580 028.4684 236.6941 0003400 171.5622 188.4985 15.02178724996027 ISS (ZARYA) 1 25544U 98067A 12045.40919830 .00011306 00000-0 14815-3 0 79 2 25544 051.6429 022.8988 0020360 043.9913 092.8161 15.58890075758719 CXO 1 25867U 99040B 12044.62500000 -.00000645 00000-0 00000+0 0 7010 2 25867 071.3976 014.0159 8744866 277.8213 357.7480 00.37809779 8682 ____________________________________________________________________ These 2-Line ...Continue Reading

[list_settings.list_name] Current TLEs

February 13th 2012 PST

HST 1 20580U 90037B 12043.90246310 .00001059 00000-0 65978-4 0 9421 2 20580 028.4685 243.2126 0003624 165.0031 195.0712 15.02176977995879 ISS (ZARYA) 1 25544U 98067A 12044.50423730 .00010156 00000-0 13388-3 0 18 2 25544 051.6424 027.4392 0020396 039.9632 054.8576 15.58868453758573 CXO 1 25867U 99040B 12044.62500000 -.00000645 00000-0 00000+0 0 7010 2 25867 071.3976 014.0159 8744866 277.8213 357.7480 00.37809779 8682 ____________________________________________________________________ These 2-Line ...Continue Reading

[list_settings.list_name] Current TLEs

February 12th 2012 PST

HST 1 20580U 90037B 12040.97913594 .00001106 00000-0 69463-4 0 9415 2 20580 028.4698 262.3315 0003504 136.6329 223.4577 15.02171516995437 ISS (ZARYA) 1 25544U 98067A 12043.42665610 .00010338 00000-0 13626-3 0 9952 2 25544 051.6423 032.8496 0020467 035.8261 127.7098 15.58846224758402 CXO 1 25867U 99040B 12044.62500000 -.00000645 00000-0 00000+0 0 7010 2 25867 071.3976 014.0159 8744866 277.8213 357.7480 00.37809779 8682 ____________________________________________________________________ These 2-Line ...Continue Reading

[list_settings.list_name] Current TLEs

February 11th 2012 PST

HST 1 20580U 90037B 12040.97913594 .00001106 00000-0 69463-4 0 9415 2 20580 028.4698 262.3315 0003504 136.6329 223.4577 15.02171516995437 ISS (ZARYA) 1 25544U 98067A 12042.39776853 .00010660 00000-0 14040-3 0 9891 2 25544 051.6418 038.0136 0020527 031.8220 113.9517 15.58824712758246 CXO 1 25867U 99040B 12042.00000000 -.00000461 00000-0 00000+0 0 7000 2 25867 071.3710 014.2129 8740106 277.8034 000.4901 00.37803670 8674 ____________________________________________________________________ These 2-Line ...Continue Reading

[list_settings.list_name] Current TLEs

February 10th 2012 PST

HST 1 20580U 90037B 12040.97913594 .00001106 00000-0 69463-4 0 9415 2 20580 028.4698 262.3315 0003504 136.6329 223.4577 15.02171516995437 ISS (ZARYA) 1 25544U 98067A 12041.49896845 .00010690 00000-0 14089-3 0 9824 2 25544 051.6418 042.5264 0020375 028.3701 110.2240 15.58805008758109 CXO 1 25867U 99040B 12042.00000000 -.00000461 00000-0 00000+0 0 7000 2 25867 071.3710 014.2129 8740106 277.8034 000.4901 00.37803670 8674 ____________________________________________________________________ These 2-Line ...Continue Reading

[list_settings.list_name] Current TLEs

February 9th 2012 PST

HST 1 20580U 90037B 12039.98254251 .00001145 00000-0 72367-4 0 9401 2 20580 028.4702 268.8502 0003398 124.3941 235.6882 15.02169671995283 ISS (ZARYA) 1 25544U 98067A 12040.34620637 .00010226 00000-0 13522-3 0 9760 2 25544 051.6424 048.3133 0020327 023.9443 121.4439 15.58777988757924 CXO 1 25867U 99040B 12042.00000000 -.00000461 00000-0 00000+0 0 7000 2 25867 071.3710 014.2129 8740106 277.8034 000.4901 00.37803670 8674 ____________________________________________________________________ These 2-Line ...Continue Reading

[list_settings.list_name] Current TLEs

February 8th 2012 PST

HST 1 20580U 90037B 12037.98935604 .00001450 00000-0 95032-4 0 9398 2 20580 028.4702 281.8885 0003297 105.0370 255.0571 15.02166594994980 ISS (ZARYA) 1 25544U 98067A 12039.45142810 .00010517 00000-0 13895-3 0 9702 2 25544 051.6416 052.8077 0020467 020.7920 140.1381 15.58758900757783 CXO 1 25867U 99040B 12039.33333333 -.00000395 00000-0 00000+0 0 6993 2 25867 071.3430 014.3759 8738328 277.8270 357.3911 00.37800095 8660 ____________________________________________________________________ These 2-Line ...Continue Reading

[list_settings.list_name] Current TLEs

February 7th 2012 PST

HST 1 20580U 90037B 12036.06260360 .00001506 00000-0 99186-4 0 9381 2 20580 028.4708 294.4865 0003299 082.7422 277.3608 15.02161937994697 ISS (ZARYA) 1 25544U 98067A 12038.35706296 .00008717 00000-0 11648-3 0 9628 2 25544 051.6415 058.3015 0020265 016.6331 119.1954 15.58731602757615 CXO 1 25867U 99040B 12039.33333333 -.00000395 00000-0 00000+0 0 6993 2 25867 071.3430 014.3759 8738328 277.8270 357.3911 00.37800095 8660 ____________________________________________________________________ These 2-Line ...Continue Reading

[list_settings.list_name] Current TLEs

February 6th 2012 PST

HST 1 20580U 90037B 12036.06260360 .00001506 00000-0 99186-4 0 9381 2 20580 028.4708 294.4865 0003299 082.7422 277.3608 15.02161937994697 ISS (ZARYA) 1 25544U 98067A 12037.46015685 .00009498 00000-0 12636-3 0 9573 2 25544 051.6416 062.8004 0020349 013.0440 126.5306 15.58715378757478 CXO 1 25867U 99040B 12036.70833333 -.00000570 00000-0 00000+0 0 6980 2 25867 071.3037 014.6261 8739544 277.8126 359.9667 00.37803937 8658 ____________________________________________________________________ These 2-Line ...Continue Reading

[list_settings.list_name] Current TLEs

February 5th 2012 PST

HST 1 20580U 90037B 12036.06260360 .00001506 00000-0 99186-4 0 9381 2 20580 028.4708 294.4865 0003299 082.7422 277.3608 15.02161937994697 ISS (ZARYA) 1 25544U 98067A 12036.43470789 .00010019 00000-0 13304-3 0 9517 2 25544 051.6414 067.9469 0020234 009.3808 132.2265 15.58696502757314 CXO 1 25867U 99040B 12036.70833333 -.00000570 00000-0 00000+0 0 6980 2 25867 071.3037 014.6261 8739544 277.8126 359.9667 00.37803937 8658 ____________________________________________________________________ These 2-Line ...Continue Reading
  • This mailing list is a public mailing list - anyone may join or leave, at any time.
  • This mailing list is announce-only.

International Space Station (ISS) / Hubble Space Telescope (HST) / Chandra X-Ray Observatory Orbital Data via EMAIL

Privacy Policy:

Private list